Location: Allaines
(49.9632°N, 2.9458°E)
Time: 02:49:04
(UTC+00:00)

Terra - Pass Details

Date: 09 April 2020
Orbit: 701 x 703 km, 98.2° (Epoch: 26 May)

Event Time Altitude Azimuth Distance (km) Brightness Sun altitude
Exits shadow 22:08:24 50° 272° (W) 900 2.4 -28.0°
Drops below altitude 10° 22:12:48 10° 337° (NNW) 2,184 5.3 -28.3°
Sets 22:15:09 0° 342° (NNW) 3,107 6.4 -28.5°
